This is the latest recevied weather packets stored in our database for station/object N3WMC. If no packets are shown the sender has not sent any weather packets the latest 10 day(s).
| Time | Temp. | Humidity | Pressure | Rain* | Wind** | Luminosity | Snow |
|---|---|---|---|---|---|---|---|
| 1787830057 | 17.22° C | 99% | 1015.9 hPa | 0 mm | - | 9 W/m² | - |
| 1787829756 | 17.78° C | 99% | 1015.6 hPa | 0 mm | - | 9 W/m² | - |
| 1787829451 | 17.78° C | 99% | 1015.7 hPa | 1.27 mm | - | 7 W/m² | - |
| 1787829148 | 17.78° C | 99% | 1015.8 hPa | 1.27 mm | - | 5 W/m² | - |
| 1787828843 | 17.22° C | 98% | 1015.6 hPa | 1.78 mm | - | 2 W/m² | - |
| 1787828540 | 17.22° C | 98% | 1015.6 hPa | 6.1 mm | - | 1 W/m² | - |
| 1787828239 | 17.22° C | 98% | 1016 hPa | 14.99 mm | - | 1 W/m² | - |
| 1787827938 | 17.22° C | 99% | 1015.9 hPa | 10.67 mm | - | 1 W/m² | - |
| 1787827632 | 16.67° C | 98% | 1016 hPa | 0 mm | - | 1 W/m² | - |
| 1787827328 | 16.67° C | 98% | 1016.3 hPa | 0 mm | - | 0 W/m² | - |
| 1787827027 | 16.67° C | 98% | 1016 hPa | 0 mm | - | 0 W/m² | - |
| 1787826726 | 16.11° C | 98% | 1015.6 hPa | 0 mm | - | 0 W/m² | - |
| 1787826416 | 16.11° C | 98% | 1015.3 hPa | 0 mm | - | 0 W/m² | - |
| 1787826113 | 16.11° C | 98% | 1015.3 hPa | 0 mm | - | 0 W/m² | - |
| 1787825811 | 16.11° C | 98% | 1015.3 hPa | 0 mm | - | 0 W/m² | - |
| 1787825510 | 16.11° C | 98% | 1015.2 hPa | 0 mm | - | 0 W/m² | - |
| 1787825205 | 16.11° C | 98% | 1015.3 hPa | 0 mm | - | 0 W/m² | - |
| 1787824903 | 16.11° C | 98% | 1015.1 hPa | 0 mm | - | 0 W/m² | - |
| 1787824601 | 16.11° C | 98% | 1015.2 hPa | 0 mm | - | 0 W/m² | - |
| 1787824296 | 16.11° C | 98% | 1015.1 hPa | 0 mm | - | 0 W/m² | - |
| 1787823992 | 16.11° C | 99% | 1015.1 hPa | 0 mm | - | 0 W/m² | - |
| 1787823687 | 16.11° C | 99% | 1015.2 hPa | 0 mm | - | 0 W/m² | - |
| 1787823382 | 16.11° C | 98% | 1015 hPa | 0 mm | - | 0 W/m² | - |
| 1787823081 | 16.11° C | 98% | 1015.1 hPa | 0 mm | - | 0 W/m² | - |
| 1787822775 | 16.11° C | 98% | 1015.2 hPa | 0 mm | - | 0 W/m² | - |
* Rain latest hour (hover to see other rain measurements)
** Current wind speed in m/s (hover to see current wind gust speed)